Wind_Speed
10 11 11 13 14 15 14 13 13 14 15 15 16 17 17 17 17 17 17 18 18 19 19 19 19 19 19 18 18 18 19 19 20 21 21 22 22 21 20 18 17 17 16 16 15 16 16 17 17 18 18 17 18 18 18 19 19 19 20 19 20 21 21 22 22 22 22 23 24 24 24 24 23 23 22 22 22 22 22 22 21 21 22 21 20
13 13 12 14 14 15 14 12 13 13 14 15 15 16 17 17 16 16 16 16 17 18 17 18 18 18 18 18 18 18 18 19 21 21 22 22 22 21 19 18 18 17 16 16 15 15 16 16 16 17 17 17 18 18 18 18 19 20 20 19 20 21 21 21 21 22 21 22 23 24 24 24 24 24 23 23 24 23 23 22 21 21 21 19 19
15 14 13 14 14 15 14 12 12 12 14 14 14 15 17 17 16 16 15 15 15 16 16 16 17 17 17 17 17 17 18 19 20 21 21 21 21 21 19 18 18 18 16 16 16 15 15 15 15 16 17 17 17 17 17 18 19 19 19 19 20 20 21 22 22 22 22 22 22 24 25 25 24 23 23 23 23 22 21 21 20 20 19 18 18
16 15 14 14 14 15 13 12 12 13 14 13 13 14 15 15 15 15 14 13 13 14 15 15 16 16 16 16 16 16 17 17 19 21 20 21 21 21 20 18 18 18 17 16 16 16 15 15 15 16 17 17 17 17 17 18 18 18 18 18 19 20 21 22 22 22 22 23 23 24 24 24 24 23 23 23 21 20 20 20 20 19 19 18 18
17 16 15 15 14 14 13 12 13 13 14 13 13 13 13 14 14 13 13 13 13 14 14 15 15 15 15 16 16 16 16 17 19 19 20 21 22 22 20 19 18 19 18 17 17 16 16 16 16 17 18 18 17 18 18 18 18 18 18 18 19 20 21 21 21 22 23 23 24 24 25 25 25 25 24 22 20 19 20 21 22 22 21 20 20
17 16 16 15 14 14 12 13 13 13 13 13 13 12 12 13 13 12 12 13 14 14 15 15 15 15 15 16 16 16 16 17 19 19 21 23 23 22 21 19 18 19 18 17 17 17 17 18 18 18 19 18 18 18 18 18 18 18 18 19 20 20 20 20 20 21 22 23 23 24 25 25 25 24 23 22 21 20 21 23 24 23 23 23 22
14 15 16 15 14 13 13 13 13 12 13 13 13 12 12 12 13 12 12 13 14 14 14 14 14 15 15 16 16 16 16 17 19 20 22 22 22 21 21 20 19 19 18 18 18 18 18 19 19 20 20 19 19 19 18 18 18 18 18 19 19 19 20 20 20 20 20 22 23 23 23 24 25 23 22 23 23 22 23 24 24 24 24 25 25
14 14 15 14 13 13 13 13 13 13 13 13 13 12 12 12 12 12 12 13 14 15 14 14 14 14 15 16 16 16 15 16 18 20 21 21 21 21 21 20 19 19 18 18 18 18 19 20 20 21 22 20 20 19 18 18 18 18 19 19 19 19 19 19 20 20 21 22 23 23 23 24 24 23 21 22 24 24 24 24 24 24 25 26 25
16 15 15 14 14 14 14 14 14 14 13 13 13 13 12 12 12 11 11 12 14 15 15 14 13 14 15 15 15 14 14 16 18 19 20 20 21 21 21 20 19 19 19 18 18 18 19 20 21 22 22 21 20 19 18 18 18 18 18 18 19 19 18 19 19 20 22 22 23 24 24 24 25 24 21 22 24 24 24 25 25 24 25 26 25
17 17 16 15 14 14 14 13 13 13 13 13 13 12 12 12 11 11 11 12 13 14 14 13 13 13 14 14 14 13 14 15 16 18 19 20 21 21 21 20 20 19 19 19 18 18 19 20 21 22 21 20 19 19 18 17 18 18 18 19 18 18 18 19 19 21 22 22 23 24 24 24 24 23 21 22 23 23 24 24 24 24 25 26 25
16 17 16 15 14 13 13 13 12 11 12 12 12 12 12 11 11 11 11 11 12 12 12 13 12 13 14 14 13 12 13 14 14 16 18 20 20 20 21 20 20 20 20 19 18 18 19 19 20 22 21 19 19 18 18 17 18 18 18 18 17 17 17 18 19 21 21 22 24 24 24 24 24 23 21 22 23 23 23 24 24 24 24 25 25
15 17 16 15 14 13 12 13 12 11 11 12 12 12 12 11 11 12 11 11 11 11 11 11 11 12 13 13 12 12 12 13 13 14 17 19 20 20 21 21 20 20 20 19 19 18 19 19 20 21 20 19 19 18 17 17 17 17 16 16 16 16 16 17 19 21 22 24 25 25 25 24 24 22 21 22 22 22 23 23 23 23 23 23 23
16 17 16 16 14 12 11 12 12 11 11 12 11 11 11 11 11 11 12 11 11 10 10 10 10 11 11 12 11 11 11 12 12 14 16 18 19 19 20 21 20 19 19 19 19 18 18 19 19 19 19 19 18 17 17 16 16 16 15 15 15 15 16 17 19 22 24 26 26 25 25 24 23 22 22 22 22 22 22 22 23 22 22 22 22
17 18 16 15 14 13 11 11 11 12 11 11 10 10 11 11 11 11 12 11 11 10 10 10 9 10 10 11 11 10 10 11 12 13 15 16 17 18 19 20 20 19 18 18 18 18 18 18 18 18 18 18 17 17 16 16 15 15 15 15 14 15 15 17 20 23 26 26 26 25 24 24 23 22 22 22 22 22 22 23 22 22 22 21 21
15 18 17 14 13 13 12 10 10 12 12 11 11 11 11 11 10 11 12 12 11 11 10 9 9 9 9 10 10 10 10 11 11 11 13 15 15 16 18 19 19 19 18 17 17 17 17 17 17 17 17 17 16 15 15 14 14 14 14 14 14 15 16 18 22 25 26 26 26 25 25 24 22 22 22 22 22 22 22 22 22 22 22 21 21
14 18 17 15 13 12 12 10 10 10 11 11 12 12 11 10 10 11 12 12 11 11 10 9 9 8 9 10 10 10 10 10 10 9 11 13 14 15 16 18 18 18 17 17 17 17 17 17 17 17 16 16 15 15 14 14 14 14 14 14 15 15 17 19 23 24 25 26 26 25 24 23 22 22 22 22 21 20 20 20 21 21 21 21 21
13 17 17 15 13 12 12 11 10 9 9 11 12 12 12 11 11 11 13 13 12 11 10 9 9 9 9 9 9 9 9 9 9 9 10 12 13 13 15 16 17 17 17 17 16 16 16 16 16 16 16 16 16 16 15 15 15 14 14 14 15 16 18 19 22 23 24 25 25 25 24 23 22 22 22 22 20 19 19 18 18 19 19 19 20
14 16 16 14 13 12 11 12 12 11 10 10 11 12 12 12 11 12 13 14 13 12 11 10 9 9 9 9 9 9 9 9 9 8 9 11 12 12 14 15 16 17 17 17 16 16 16 16 17 17 17 17 17 17 17 17 17 17 16 16 16 16 17 18 20 22 24 26 25 24 23 21 21 21 21 22 20 22 23 21 19 18 18 18 18
15 15 15 14 14 13 12 13 13 12 12 12 11 13 13 12 12 12 14 14 14 13 11 10 9 9 9 9 9 9 9 8 8 7 8 10 11 12 13 14 16 17 17 18 17 17 17 17 17 17 17 18 18 19 19 19 19 19 19 18 17 17 17 19 20 22 25 26 25 24 22 21 21 21 22 21 21 22 24 24 23 22 20 20 19
16 16 16 16 15 16 15 13 13 12 14 14 13 14 14 13 12 13 14 14 14 13 12 11 10 9 9 9 9 9 9 8 8 7 8 9 10 11 12 13 15 17 18 19 19 19 18 18 17 17 17 18 19 19 19 20 20 20 20 20 19 19 20 21 22 23 25 26 26 24 23 22 21 21 22 22 22 21 21 23 22 22 23 23 24
18 17 18 19 17 16 15 12 13 15 14 14 15 15 15 14 13 13 13 13 14 14 13 12 11 10 10 9 10 9 9 9 8 8 8 9 9 10 12 13 14 17 19 20 20 21 20 19 18 18 18 18 18 19 19 19 19 19 19 19 20 21 21 22 22 24 25 27 26 25 24 23 23 23 23 23 23 23 23 23 21 21 22 23 24
19 18 19 20 20 18 15 12 14 16 14 14 15 15 15 14 13 13 13 13 15 15 14 13 12 11 11 10 11 10 9 9 8 8 9 9 9 10 11 12 14 16 18 20 20 21 21 21 20 19 18 18 18 18 18 18 19 18 18 19 20 21 21 21 22 24 26 28 27 25 24 24 24 24 24 24 24 24 24 24 24 23 23 22 23
19 19 19 20 20 17 15 15 15 15 15 17 16 15 14 14 14 14 13 13 14 15 14 13 12 12 12 11 11 11 10 9 8 9 10 9 9 10 11 12 14 16 17 19 20 20 20 20 20 20 19 19 19 19 19 19 20 19 20 21 22 22 21 21 22 24 26 28 28 25 24 24 24 23 23 24 24 24 24 24 24 25 25 24 24
19 19 19 19 18 14 14 18 18 17 17 17 17 16 15 15 15 15 15 14 14 15 14 14 13 13 12 11 11 11 11 10 9 10 11 10 10 10 11 12 13 15 16 17 18 18 18 19 19 19 20 21 21 20 20 21 21 22 23 24 24 24 23 23 23 23 24 27 27 24 23 23 22 23 22 23 23 23 23 23 23 24 24 24 24
19 19 19 18 17 16 14 16 16 18 19 16 16 17 15 15 15 15 16 15 15 15 16 15 13 13 12 11 11 11 11 11 10 11 12 11 11 11 11 12 12 14 15 15 16 16 17 18 18 19 20 21 21 21 21 21 22 23 24 25 25 24 24 24 23 23 23 24 25 23 23 22 22 22 22 22 22 22 22 22 22 22 23 23 23
20 20 20 19 19 19 17 17 15 15 18 17 18 17 15 15 14 14 15 16 17 16 17 16 14 13 12 12 12 13 12 12 12 12 13 13 12 11 12 12 12 12 12 13 15 15 15 16 17 18 19 20 21 21 21 21 22 23 24 24 24 23 23 23 23 22 22 22 22 22 23 24 24 23 22 22 22 22 22 22 22 22 22 22 22
22 21 21 21 20 20 20 19 17 15 15 16 18 19 17 16 15 15 15 16 17 17 17 16 15 14 13 13 13 14 13 13 15 15 14 15 14 12 13 13 12 12 11 12 15 13 12 15 17 18 18 19 20 21 21 21 21 22 22 22 22 22 22 22 22 21 21 20 20 20 21 23 24 23 21 22 23 23 22 23 23 22 23 23 22
22 22 21 22 21 21 21 21 20 18 18 17 17 20 20 18 19 17 15 16 18 18 18 16 16 15 13 13 12 14 15 15 17 17 15 15 15 13 14 15 13 13 11 12 13 12 12 14 17 18 17 18 19 20 21 21 21 20 20 20 20 21 22 22 22 21 21 20 20 19 19 21 22 24 23 22 22 23 23 23 23 23 24 24 24
22 22 21 22 21 21 21 21 21 19 18 18 18 20 20 20 20 20 18 17 18 18 17 17 17 16 15 14 12 13 15 16 17 19 17 15 16 14 15 16 14 14 13 13 13 13 13 15 17 18 16 17 18 19 20 19 20 20 18 18 19 20 22 22 22 22 21 21 21 20 19 19 20 23 24 24 23 24 25 24 23 23 24 25 25
22 21 21 21 21 21 21 21 21 20 19 18 19 19 20 20 19 21 20 18 20 19 18 18 16 15 16 16 15 14 14 15 16 19 20 17 17 16 15 16 15 15 14 14 15 14 14 16 18 17 15 17 18 17 19 18 18 20 19 19 20 21 22 22 22 22 21 21 21 21 20 20 20 21 23 24 24 25 26 26 25 24 23 24 25
21 21 21 20 20 20 21 21 22 23 23 21 19 19 21 22 20 21 20 18 20 19 20 21 18 16 14 13 15 13 14 15 15 17 19 18 18 18 17 17 17 16 15 15 16 15 15 17 17 17 16 17 18 16 18 19 19 21 21 21 21 22 23 22 22 22 22 21 21 21 21 21 21 21 21 22 23 24 25 26 26 25 24 25 25
22 21 20 19 20 21 21 22 23 24 25 24 20 20 22 22 22 23 20 19 22 20 19 20 19 20 16 13 14 13 13 15 15 16 18 19 18 18 18 19 18 17 16 16 18 17 17 18 18 19 18 19 20 18 18 19 21 23 23 23 22 22 23 23 22 22 22 22 22 21 21 21 21 21 20 20 20 21 22 24 25 25 25 25 25
22 20 19 19 20 21 21 21 22 23 26 25 22 21 23 23 21 20 18 20 23 23 22 20 19 20 16 15 15 14 14 15 14 13 15 18 18 16 17 18 19 18 17 17 19 18 19 20 20 21 21 21 23 22 20 20 22 23 23 22 22 22 22 22 21 21 21 22 21 21 21 20 20 20 19 19 18 18 19 20 22 23 24 24 25
21 19 19 19 19 19 17 17 19 22 25 26 23 22 24 25 22 19 18 20 22 25 24 22 22 19 17 17 16 16 18 16 14 11 12 15 16 16 16 18 19 18 18 18 20 20 20 22 22 22 23 22 24 23 23 24 24 23 23 22 22 22 20 21 21 20 21 21 20 20 20 20 20 19 18 18 17 17 16 16 18 20 22 22 24
20 19 19 18 17 15 13 13 16 20 23 25 24 23 25 24 23 21 21 23 25 26 25 24 21 18 19 19 16 17 20 19 16 13 14 15 16 16 15 16 19 19 20 22 22 22 21 22 21 22 24 24 24 24 24 25 25 24 24 22 22 21 20 21 20 20 19 19 19 19 19 19 19 19 18 18 17 17 16 15 15 17 19 20 21
19 19 18 16 14 11 10 12 16 20 23 25 24 24 26 24 21 19 18 21 24 25 25 24 19 16 16 16 14 14 16 17 18 17 16 16 16 17 16 16 19 21 23 24 23 22 21 22 21 21 25 26 25 25 25 26 27 26 24 23 21 20 20 20 19 18 18 17 18 18 18 18 18 17 17 17 17 16 16 16 15 16 17 18 19
18 17 16 14 13 11 11 14 18 21 23 24 24 25 26 24 22 19 16 18 22 23 21 19 16 15 14 12 13 13 13 14 16 17 16 16 17 18 18 18 20 21 22 22 22 22 21 22 23 23 23 25 26 26 27 27 27 26 25 23 22 19 19 18 17 17 16 16 17 17 17 17 16 16 16 15 15 15 15 15 16 16 17 18 18
17 16 14 13 13 13 15 17 19 22 24 25 26 25 22 21 24 24 20 20 22 20 19 16 14 16 15 15 17 16 16 15 15 16 16 18 19 19 19 21 22 22 21 20 20 21 22 22 24 24 22 23 27 28 29 29 28 27 25 23 21 19 18 17 16 15 15 16 17 16 16 15 15 15 14 14 14 14 14 15 15 16 17 17 17
18 16 14 15 15 15 17 19 21 23 25 26 26 25 21 22 26 27 25 23 21 18 18 16 15 15 13 14 16 16 18 19 17 18 20 23 22 19 21 23 22 22 20 19 20 22 22 22 23 25 24 25 27 29 30 30 29 26 24 22 19 18 17 15 15 15 15 16 15 15 14 14 14 14 13 13 13 13 14 15 16 17 18 18 18
19 16 15 17 18 19 20 21 23 24 26 27 27 26 24 25 25 25 26 25 23 22 21 20 19 17 15 14 13 12 16 19 19 20 23 25 23 21 21 22 21 21 19 20 21 22 22 23 23 26 28 29 29 30 30 29 29 26 23 21 19 17 15 14 14 14 15 14 14 13 13 13 13 13 14 13 13 14 14 15 16 17 18 18 18
20 17 17 19 20 21 23 24 25 25 27 27 27 28 29 27 25 23 24 25 25 25 24 22 20 18 17 16 14 14 15 17 19 20 20 21 21 21 21 21 21 19 18 20 21 22 23 24 26 28 30 32 32 30 29 28 27 24 21 19 18 16 14 13 13 14 14 13 13 12 12 12 12 13 13 12 12 13 14 15 16 16 17 17 17
22 21 21 21 22 23 25 27 27 27 28 28 28 29 29 27 26 24 25 24 23 24 23 22 20 18 17 16 18 18 17 19 19 17 17 19 21 21 21 21 20 19 19 21 22 24 26 26 29 31 30 32 32 31 29 23 19 21 20 16 14 13 13 13 14 14 14 13 12 12 11 11 12 12 11 11 12 12 13 14 14 15 15 16 16
24 23 23 23 24 25 26 28 28 29 29 29 30 29 27 27 27 26 26 25 23 23 22 21 20 19 17 17 21 19 19 22 20 17 19 22 23 22 20 20 20 20 22 25 26 27 28 29 30 31 31 32 30 29 25 15 15 22 19 10 5 6 6 7 11 13 13 12 11 11 11 11 11 11 10 11 11 12 12 13 13 13 14 15 17
25 25 26 26 27 27 28 29 29 30 29 29 30 29 27 27 26 26 26 25 23 22 21 20 21 20 18 19 21 20 21 22 20 21 23 24 24 22 20 22 23 23 24 27 29 29 30 30 29 29 30 31 28 25 18 13 18 20 11 4 3 3 1 3 7 10 12 12 11 12 11 11 11 9 9 11 11 11 12 12 12 13 13 15 17
28 28 29 29 29 29 29 29 29 29 30 30 30 28 27 27 26 26 25 22 22 23 22 22 22 20 18 20 21 21 23 22 20 24 25 25 25 22 23 25 25 24 25 26 29 30 30 29 27 26 27 26 27 24 14 14 21 15 7 5 4 2 3 6 8 6 8 10 11 11 11 10 10 9 9 10 10 10 11 11 11 11 12 15 17
31 30 30 29 29 29 30 30 29 30 30 31 31 28 27 28 28 28 26 23 22 23 24 24 23 20 20 22 23 22 23 22 22 26 26 26 25 24 25 26 25 25 25 26 28 29 28 27 25 24 23 22 25 24 18 19 19 10 7 7 3 3 6 9 7 3 5 8 9 10 10 9 9 8 8 8 8 8 9 10 10 11 13 16 17
30 28 28 28 28 29 30 30 30 31 32 32 31 30 29 31 31 30 29 27 25 25 25 24 23 22 23 23 23 23 24 24 26 28 27 27 26 26 27 26 26 26 25 26 27 27 27 26 24 22 19 19 22 23 21 22 18 9 7 7 5 6 9 10 6 4 4 4 6 9 8 7 7 6 6 7 6 7 9 10 10 11 13 15 16
27 26 27 28 28 28 30 30 30 31 32 32 32 31 31 31 30 29 29 29 28 27 27 24 23 24 25 25 25 26 26 27 28 29 28 27 27 28 28 27 26 26 25 26 27 26 26 25 23 20 18 18 18 19 22 23 18 12 10 9 8 8 9 8 7 6 5 3 3 5 7 7 6 6 5 6 6 6 9 10 10 11 12 14 15
26 27 29 29 28 28 29 30 30 31 32 32 32 31 30 29 29 30 29 28 27 28 27 26 25 25 26 26 27 28 29 30 31 30 29 28 28 29 29 28 27 27 27 27 26 26 25 23 22 20 18 18 16 16 19 20 16 13 12 10 9 9 9 7 7 7 6 4 2 2 5 6 6 6 5 5 5 6 8 9 9 9 11 12 14
26 27 28 28 28 29 29 31 31 31 32 32 32 31 30 30 31 32 31 28 26 27 27 26 27 27 27 28 30 31 31 31 32 30 29 30 30 30 29 28 28 28 28 27 27 26 25 23 22 21 19 19 18 17 17 17 14 13 12 11 11 12 9 7 7 8 7 5 3 3 5 5 5 5 5 5 5 5 7 7 7 7 9 11 13
26 26 27 29 30 30 31 32 32 33 33 33 33 33 32 32 32 32 31 30 29 29 29 29 29 29 30 31 31 32 32 32 32 31 31 32 32 31 29 29 28 28 28 27 27 27 26 25 23 23 21 20 20 18 17 17 15 14 12 11 11 11 8 7 10 11 9 7 5 5 6 4 4 4 5 4 4 3 5 6 5 6 8 10 13
Wind_Direction
166 151 151 141 132 127 126 129 126 121 113 108 106 105 109 113 112 106 102 100 98 97 94 92 91 88 84 82 80 80 79 76 73 68 63 59 57 57 58 61 65 68 69 68 69 70 71 74 78 78 76 75 74 73 72 74 76 74 71 69 69 67 66 64 62 64 66 67 66 64 60 59 57 54 52 52 50 47 45 43 44 46 45 41 41
165 155 156 145 139 129 127 128 124 121 112 109 106 106 108 111 111 108 105 101 99 97 95 94 93 90 87 85 82 81 79 76 73 66 62 59 57 57 59 65 67 69 72 71 70 72 73 75 80 82 80 78 76 74 73 75 76 76 72 69 70 68 67 65 64 64 65 67 67 67 64 60 58 56 53 51 48 44 41 41 41 42 41 38 39
161 158 157 146 140 130 130 130 127 124 114 111 108 108 109 110 110 108 108 107 104 100 98 97 94 91 89 87 85 82 79 77 70 64 63 61 58 56 58 66 68 67 71 72 70 73 73 75 80 84 83 82 81 78 76 76 77 77 75 72 72 70 68 67 67 66 66 67 67 68 66 61 57 55 52 49 42 36 35 35 35 38 39 38 40
162 160 157 146 140 133 134 136 134 128 118 115 112 110 109 110 109 107 107 108 112 110 103 98 96 93 89 87 85 82 79 75 68 66 65 63 59 55 55 63 70 67 69 73 73 72 72 76 81 84 85 83 82 81 80 79 78 78 76 75 73 71 70 69 69 68 67 67 66 65 64 60 55 51 47 44 37 31 30 32 35 41 44 44 43
163 161 158 150 145 140 140 141 136 130 124 120 116 113 110 110 108 105 102 102 112 115 107 101 96 92 90 88 85 81 78 74 71 69 68 64 60 55 54 62 71 69 67 72 74 74 74 76 80 85 85 82 81 82 83 81 78 76 75 75 74 72 70 70 69 68 67 65 64 62 60 57 52 46 41 39 35 35 36 40 42 44 45 46 46
164 160 159 155 149 144 144 143 135 132 128 122 118 116 114 110 106 104 99 100 108 110 106 103 98 94 91 90 88 83 79 75 73 72 69 65 60 56 56 62 70 71 68 71 74 76 78 78 81 84 83 81 81 82 83 81 79 76 75 74 73 72 69 68 66 66 65 63 61 59 56 52 49 44 39 39 40 44 46 46 45 43 42 43 45
169 163 162 157 151 146 147 144 138 137 132 126 124 122 119 114 109 106 101 101 108 109 105 103 98 96 93 90 89 86 82 78 77 73 68 64 61 59 58 63 70 72 71 71 74 77 80 80 80 83 82 81 82 84 84 83 81 79 76 75 73 71 69 67 64 63 62 61 59 56 53 49 51 48 41 42 47 50 50 49 47 43 42 41 42
176 170 164 158 154 151 152 149 145 145 140 134 131 128 124 118 113 109 104 104 108 109 105 101 97 96 94 91 90 90 85 81 79 73 68 65 63 61 60 64 71 74 72 72 74 77 80 80 80 82 81 81 83 85 85 83 83 81 77 74 72 70 68 67 64 63 62 62 61 57 53 52 56 56 48 46 51 52 49 51 50 45 44 43 42
178 176 167 162 162 160 160 156 154 152 147 141 134 132 128 122 117 111 108 106 108 109 106 102 100 99 96 94 94 93 87 82 81 74 69 67 65 63 62 66 73 76 74 73 74 78 80 81 82 82 81 83 86 87 86 84 83 81 77 74 72 70 68 67 65 65 64 64 62 60 57 56 60 59 54 51 54 55 51 52 52 48 46 47 45
176 177 170 167 168 166 163 160 161 157 149 143 137 134 132 129 124 117 111 109 110 110 106 102 100 99 98 97 95 93 88 84 82 76 69 69 69 66 65 68 76 79 77 75 76 79 81 82 82 81 82 84 88 89 87 85 83 81 79 77 74 72 70 69 68 68 66 63 60 60 60 60 62 60 57 56 57 57 54 54 53 50 48 49 49
177 178 173 172 174 169 167 168 165 160 151 145 142 138 138 136 129 124 117 113 113 109 105 102 99 98 100 99 97 94 90 86 85 79 70 71 72 69 69 71 78 82 81 79 79 81 82 83 83 82 83 86 89 89 88 86 85 83 81 79 76 74 72 72 71 70 66 62 60 61 63 64 63 61 58 59 59 58 55 55 54 51 50 51 51
180 180 175 177 179 174 172 173 168 164 158 152 148 143 144 141 136 132 125 122 118 115 112 108 105 104 105 105 104 101 95 90 90 82 72 74 75 73 73 74 79 83 84 83 83 84 83 83 83 82 84 87 89 89 89 89 88 86 84 82 79 77 76 75 72 70 67 66 65 64 65 65 63 62 60 60 60 58 56 56 54 53 51 52 53
180 183 179 180 182 182 178 174 173 169 165 160 154 148 148 146 143 139 133 133 129 127 124 116 113 112 112 113 111 107 100 96 95 85 74 76 79 77 77 77 79 83 85 86 87 87 85 85 86 85 87 89 91 92 92 91 90 89 86 83 81 80 79 78 75 72 71 69 68 65 64 64 63 61 61 61 60 59 57 56 54 53 52 52 52
180 185 183 184 183 185 184 179 177 171 170 168 162 154 153 153 151 149 145 143 141 140 133 126 123 120 118 119 117 113 106 100 96 88 78 78 82 80 80 80 80 82 84 85 88 90 89 90 91 92 92 93 94 93 93 92 91 89 87 84 82 81 80 80 79 77 74 71 68 66 64 63 63 62 61 60 59 58 56 54 53 53 53 52 51
181 184 184 188 186 186 187 186 185 178 175 175 172 164 161 161 159 158 155 152 150 149 142 137 135 132 126 124 122 117 112 104 98 93 85 82 85 84 82 81 81 82 83 84 85 88 91 93 94 95 95 95 94 93 92 92 91 90 87 85 83 82 83 84 84 80 77 73 68 65 63 62 62 61 60 59 57 55 53 52 50 51 52 51 50
182 184 185 188 191 188 185 190 195 190 182 181 183 175 170 168 166 168 163 158 156 156 153 149 148 146 137 129 126 121 118 111 106 101 91 85 88 87 83 82 82 83 84 85 85 87 89 90 92 92 93 92 90 88 87 88 88 89 88 87 86 87 87 89 87 82 78 75 71 67 63 62 61 60 59 55 53 51 52 51 50 49 48 48 47
180 184 186 186 194 195 187 187 196 197 191 191 191 183 177 176 175 175 170 165 163 164 162 159 157 154 148 138 133 129 125 119 115 108 97 89 89 89 86 84 84 86 86 87 87 88 89 89 88 87 87 86 85 84 83 85 85 86 88 89 91 91 92 91 87 81 78 75 72 69 64 62 61 60 55 51 51 50 52 55 53 52 49 48 47
181 184 186 187 193 197 195 190 196 196 197 199 193 186 182 183 182 177 174 172 170 170 169 168 165 161 157 149 141 137 132 128 123 114 105 93 90 93 89 86 86 86 87 87 87 87 87 87 87 87 86 85 84 84 84 84 84 85 87 89 92 94 95 91 86 82 79 75 71 69 64 61 60 59 55 51 52 51 51 55 54 51 49 48 48
185 186 184 190 192 196 206 202 202 198 197 198 190 189 188 187 184 178 178 176 175 175 175 175 170 167 164 158 151 143 140 137 131 119 109 97 91 96 93 88 87 86 85 84 84 83 82 82 84 86 87 88 87 86 85 84 84 84 85 87 90 93 93 90 87 84 80 76 72 69 65 62 60 59 57 52 51 52 50 51 50 48 48 49 48
182 186 185 196 195 184 190 195 202 208 204 197 190 192 191 190 186 182 180 178 181 182 180 180 176 174 171 166 161 154 151 146 138 126 114 103 93 97 98 92 88 88 86 84 83 81 80 80 82 85 87 88 88 88 86 85 84 84 84 85 87 88 89 89 88 85 81 76 72 68 65 62 60 58 57 53 51 53 51 48 47 45 45 47 46
179 186 189 200 203 187 190 200 201 204 208 202 196 195 194 194 190 186 182 181 185 187 187 184 182 180 176 174 170 165 158 152 146 137 126 113 99 100 104 97 92 92 90 87 84 82 80 80 83 85 87 88 88 88 87 86 85 84 84 85 85 85 86 88 87 84 79 74 69 65 63 62 61 59 57 55 53 53 53 51 48 44 43 43 43
180 187 188 197 208 206 209 211 199 196 205 211 204 201 198 195 193 189 186 187 186 187 192 190 187 183 181 179 174 170 164 159 154 145 138 126 109 106 110 105 98 95 93 90 86 83 82 81 84 86 86 88 88 88 88 87 85 84 84 84 83 83 85 85 84 82 78 73 67 64 63 62 61 60 58 57 56 56 54 54 52 48 47 45 44
187 191 195 201 206 209 208 205 207 204 207 208 202 204 201 196 196 192 191 194 190 189 194 195 193 188 185 184 177 171 169 168 161 152 147 137 122 116 119 113 103 98 95 93 90 86 84 83 84 86 86 86 87 89 89 88 86 85 83 82 81 82 83 82 83 82 81 78 73 66 63 62 61 59 58 57 56 56 55 53 52 51 50 49 47
196 199 205 209 206 203 200 201 209 203 204 201 189 196 200 198 197 193 195 197 197 194 195 199 198 195 189 184 179 173 174 175 166 157 152 147 137 129 128 120 109 103 99 96 93 89 86 86 87 87 87 88 89 90 90 89 87 84 82 81 81 81 81 81 82 83 85 84 80 74 66 62 62 60 57 57 56 55 54 53 52 51 50 49 48
201 203 206 213 211 207 200 199 204 194 201 209 194 194 196 198 199 194 196 199 201 198 198 202 200 199 192 182 179 178 181 176 171 166 157 157 152 140 135 129 118 109 105 101 97 94 91 92 93 91 90 90 91 91 89 89 86 83 82 81 80 79 79 79 80 83 85 85 84 81 75 67 64 61 58 57 56 54 53 53 53 52 50 48 47
204 207 207 212 214 218 211 202 207 195 196 208 205 206 201 197 201 200 201 201 201 202 203 203 201 199 190 185 182 180 184 179 176 176 166 165 163 152 144 138 132 121 115 111 105 99 98 99 98 96 94 92 92 92 90 87 85 83 81 80 79 78 79 79 79 80 81 82 82 81 78 72 65 59 57 56 55 54 53 53 53 52 50 48 48
207 210 211 214 215 221 222 213 214 211 205 205 205 213 212 203 204 206 210 206 202 206 206 203 202 197 190 191 191 185 184 182 181 181 176 172 171 166 155 150 147 137 130 127 116 107 109 107 104 101 98 95 93 94 92 88 86 82 81 80 79 79 80 80 79 79 79 77 76 76 77 75 70 64 59 57 56 55 54 54 53 52 52 51 51
209 210 211 213 214 217 223 223 222 224 223 221 217 218 216 211 206 207 216 213 206 207 205 206 204 198 196 198 199 194 185 184 187 184 183 179 177 175 162 158 159 152 149 144 131 125 128 118 111 106 100 98 97 98 96 92 90 84 79 80 80 82 83 82 80 79 77 75 73 72 73 75 74 70 64 60 57 56 55 55 54 53 55 54 52
212 212 212 214 215 216 219 223 224 224 224 227 227 220 216 216 208 205 214 216 212 208 206 207 203 203 207 205 207 204 193 193 195 188 183 182 181 179 168 164 167 162 161 160 148 142 140 128 119 110 103 103 101 102 99 94 94 89 82 84 86 86 85 83 80 78 76 74 73 71 70 72 75 75 70 63 59 57 56 56 55 53 53 53 52
214 214 215 217 217 219 219 219 220 218 217 222 224 219 216 220 214 205 210 216 213 208 209 209 202 200 198 203 216 214 206 208 208 195 184 182 182 181 176 171 173 172 171 170 160 154 147 137 126 116 113 110 106 108 104 99 98 95 93 93 93 90 87 83 80 78 76 74 74 72 71 71 74 77 75 70 64 60 57 55 55 53 51 51 51
215 216 219 222 223 225 224 220 219 216 217 220 220 219 216 222 221 207 203 212 213 207 206 206 206 208 203 209 221 217 216 217 210 197 186 185 183 182 186 181 180 181 181 179 170 163 155 146 136 127 126 119 114 114 110 106 102 100 100 99 97 94 89 86 83 80 79 77 76 75 74 72 71 73 74 74 71 67 61 56 55 54 52 50 49
217 222 225 230 232 234 232 227 221 215 217 219 217 215 214 219 218 205 202 211 214 210 206 204 205 213 217 221 219 213 215 208 196 190 189 192 186 184 192 185 182 187 189 186 177 169 159 152 144 136 133 128 123 121 115 110 107 106 104 102 99 95 91 88 84 82 81 79 78 75 73 71 69 68 68 70 71 70 66 61 56 54 53 51 49
221 226 231 237 240 241 238 231 224 215 213 217 217 211 211 217 212 199 201 208 205 204 212 217 209 204 208 217 216 207 204 200 193 190 191 195 192 189 195 190 186 191 193 190 180 170 161 153 146 139 136 132 127 123 120 114 112 111 107 105 101 96 94 89 86 84 82 79 77 74 71 68 66 64 63 63 64 65 65 64 61 56 53 51 48
224 228 234 240 243 246 240 227 220 213 209 212 215 209 208 213 213 210 210 211 206 203 210 212 204 197 201 211 212 202 198 198 198 200 197 197 198 194 194 193 190 191 191 187 179 169 161 153 146 139 136 133 127 125 123 118 116 114 110 108 104 100 97 92 89 87 83 80 76 72 69 66 63 62 60 59 59 61 62 62 63 60 55 52 49
225 228 234 238 241 243 238 222 209 206 206 208 211 209 210 212 215 216 210 210 209 203 201 196 194 201 203 201 203 202 197 193 197 208 207 206 208 199 192 193 194 191 184 178 173 164 157 152 147 143 135 131 129 125 123 120 119 116 112 110 105 103 99 95 93 87 82 78 73 69 66 63 61 58 57 56 56 59 60 59 61 61 58 54 51
225 228 234 234 233 232 227 215 199 199 201 203 206 204 205 206 206 204 202 206 201 189 186 184 183 190 195 193 195 200 197 194 199 202 203 212 212 199 190 191 190 183 172 166 164 158 155 151 148 148 138 132 132 127 124 123 121 117 114 112 107 105 100 95 91 85 80 74 70 67 64 62 60 58 57 57 56 57 58 57 55 56 56 52 50
226 230 232 222 216 216 212 204 196 198 198 197 200 195 192 197 197 195 203 201 187 175 174 178 181 188 200 211 208 205 204 203 201 196 203 213 203 190 185 180 176 170 163 160 158 156 156 152 147 148 143 138 137 131 127 125 122 119 116 113 109 106 100 95 89 84 79 73 70 67 64 63 61 61 60 60 61 60 59 58 54 52 53 49 46
224 230 226 206 204 210 204 200 198 197 196 193 194 191 190 200 197 193 201 195 180 174 175 183 191 194 204 218 215 211 208 208 209 205 206 203 189 181 175 168 166 165 162 159 159 157 157 155 149 147 147 144 141 135 131 127 123 120 115 111 109 105 99 95 90 84 76 71 68 66 65 64 62 62 63 64 66 66 64 61 56 53 52 49 45
219 227 217 196 200 210 202 198 198 194 194 193 191 190 194 204 194 182 188 193 191 187 185 191 191 190 202 206 201 202 204 205 211 211 201 189 180 176 169 164 166 167 164 163 163 160 157 157 152 148 146 144 142 139 134 128 123 119 114 109 106 103 100 95 89 81 74 70 69 69 67 67 67 68 69 69 69 67 63 59 55 54 52 49 45
215 220 205 192 200 209 201 194 197 195 192 190 189 189 189 195 189 179 184 191 196 194 189 191 189 194 207 202 193 198 199 196 197 197 188 178 172 171 168 165 168 169 169 169 166 163 162 159 154 151 146 139 138 138 136 133 124 115 111 109 105 102 99 96 90 82 76 74 74 74 74 74 73 72 71 70 68 64 60 55 54 53 51 48 44
212 211 199 196 202 207 201 194 196 196 193 190 190 188 184 187 186 182 187 186 186 186 183 185 184 189 197 199 203 201 198 192 185 181 178 174 171 171 171 167 169 172 175 172 168 166 165 161 153 149 147 139 136 137 140 139 127 115 109 105 101 100 97 95 91 84 80 79 80 79 79 78 76 75 73 71 68 63 59 56 53 51 47 45 41
205 204 199 198 204 207 203 197 195 195 196 194 195 189 183 190 190 184 186 184 179 178 179 180 180 184 190 200 205 197 201 200 187 183 188 187 181 173 170 170 172 176 177 171 168 166 164 162 154 147 147 144 141 141 144 142 132 129 124 109 98 97 96 94 90 85 81 81 83 83 83 83 80 80 79 75 71 66 61 56 53 51 46 43 39
204 202 200 199 204 206 203 199 195 195 195 192 193 190 186 193 195 188 185 183 180 180 181 181 181 184 190 201 200 194 202 199 188 193 197 190 182 175 175 181 181 181 176 167 165 165 161 161 160 153 149 146 145 148 152 151 144 140 131 119 119 114 101 97 92 86 83 85 88 89 88 88 85 85 85 81 75 67 63 59 53 50 46 40 37
202 201 199 199 204 204 202 199 196 195 194 192 192 191 186 189 191 188 185 183 180 181 180 180 183 183 188 198 196 195 199 193 189 195 193 186 181 180 185 185 180 178 175 166 162 163 162 162 164 162 156 151 149 155 161 163 157 148 132 114 140 139 165 169 122 93 85 88 92 94 91 90 88 85 84 80 75 67 62 58 53 49 45 38 34
201 202 200 199 202 203 201 200 197 195 194 194 194 191 186 186 183 178 179 178 174 175 177 178 181 183 189 196 193 194 193 187 191 195 189 185 182 181 183 178 172 171 168 163 161 162 164 166 167 166 165 160 159 161 165 167 166 162 155 140 126 158 206 167 144 113 96 94 96 99 92 88 87 82 81 79 74 70 63 57 54 52 45 37 32
204 203 200 199 201 202 201 200 199 198 196 196 197 196 196 194 187 178 174 173 169 172 179 182 184 188 194 194 189 191 191 188 194 193 186 184 181 178 176 171 166 163 160 159 160 162 164 167 170 169 170 170 168 165 161 167 173 181 189 183 193 208 175 152 143 131 118 100 94 100 92 84 83 77 85 89 83 76 68 59 57 54 43 35 32
204 201 199 199 200 201 201 200 199 199 200 199 198 197 198 195 191 188 188 187 181 179 184 188 190 191 192 191 189 193 194 193 192 188 183 181 178 174 171 167 162 158 157 159 159 163 166 168 171 173 174 176 175 170 164 167 173 174 178 183 177 159 154 157 154 136 141 121 101 104 97 90 90 89 99 106 100 81 65 59 56 50 39 33 30
200 198 198 199 200 201 201 200 199 199 201 202 200 198 197 193 192 194 195 193 189 187 189 192 192 190 189 192 194 196 194 190 187 183 181 179 176 173 169 166 161 157 158 159 158 162 166 167 170 175 178 180 185 181 170 171 174 164 155 153 143 137 144 152 152 141 137 134 118 108 106 105 99 100 113 123 117 84 61 54 51 44 35 31 29
197 197 198 198 200 200 199 200 200 200 201 202 203 202 202 201 200 198 192 189 190 190 189 191 191 189 190 193 195 193 189 185 183 181 179 178 176 173 169 166 162 160 160 158 155 158 160 162 165 170 172 175 182 182 172 172 179 173 161 155 146 138 136 133 137 141 125 126 172 175 143 130 107 96 110 137 127 81 60 50 45 40 32 28 25
198 198 198 198 199 198 198 199 201 203 202 202 204 204 204 204 201 197 193 190 190 187 184 185 188 189 190 191 190 188 185 183 181 179 179 177 175 172 169 167 164 162 162 158 155 156 156 158 161 164 166 166 166 169 168 168 173 174 170 170 163 151 145 141 148 150 132 126 152 182 174 157 134 110 103 140 140 90 68 52 44 38 28 26 21
197 197 198 199 198 197 197 198 201 204 205 205 206 207 205 202 200 200 200 198 192 184 180 181 183 186 188 187 186 185 184 182 180 179 177 175 173 171 168 167 165 163 162 159 157 156 157 158 160 161 163 162 161 162 163 162 163 165 164 168 168 161 158 161 162 159 153 144 141 168 185 177 161 138 99 122 151 104 67 45 34 28 19 19 16
Height
845 846 847 848 849 850 851 852 852 853 853 853 854 854 855 854 854 854 854 854 854 854 854 854 853 853 853 854 855 855 855 855 855 856 856 855 855 853 853 853 853 853 853 853 853 853 853 853 853 854 854 854 854 854 855 855 856 856 857 857 857 857 856 856 856 856 856 856 856 856 856 856 856 856 856 855 856 856 856 855 855 854 854 854 854
845 846 848 848 849 849 851 852 852 853 853 853 854 854 855 855 855 855 855 854 854 854 855 855 854 855 855 855 856 857 857 857 857 857 857 857 856 854 854 854 854 854 854 854 854 854 854 854 854 855 855 855 855 856 856 856 857 857 858 858 858 858 858 858 858 858 857 857 857 857 857 858 858 858 857 857 857 857 857 857 856 856 856 856 855
845 846 848 848 849 849 850 851 852 853 853 853 854 855 855 855 855 855 855 855 855 855 856 856 856 856 856 857 857 858 858 858 858 858 858 857 857 856 855 855 855 855 855 855 855 855 855 855 855 856 856 856 857 857 858 858 859 859 859 859 860 860 860 860 860 859 859 859 859 859 858 859 859 859 859 859 859 859 859 858 858 857 857 857 856
845 846 848 849 849 850 851 852 853 853 853 854 855 855 855 855 855 855 856 855 856 856 856 857 857 857 858 858 859 859 859 860 860 859 859 858 858 857 856 856 856 856 856 856 856 856 856 856 856 856 857 857 858 858 859 860 860 860 861 861 861 861 861 861 861 861 861 861 860 860 860 860 861 861 860 860 860 860 860 859 859 858 858 858 857
846 847 848 849 849 850 851 852 853 853 854 854 855 855 856 856 856 856 856 856 856 857 857 858 858 859 859 859 860 861 861 861 861 861 860 860 859 859 858 857 857 857 857 857 857 857 857 857 857 857 858 858 859 860 860 861 862 862 862 862 862 863 863 863 863 863 863 862 862 862 862 862 862 862 862 862 862 861 861 860 860 859 859 859 859
846 847 848 849 850 851 851 852 853 853 854 855 856 856 856 856 857 857 857 857 857 858 859 859 860 860 860 861 861 862 862 862 862 862 861 861 861 860 859 858 858 858 858 858 858 858 858 858 858 858 859 860 860 861 862 862 863 863 864 864 864 864 864 864 864 864 864 863 863 863 863 863 863 864 863 863 863 862 862 862 862 861 861 860 860
846 847 848 849 849 850 851 852 852 853 854 855 856 857 857 857 857 858 858 858 859 860 860 861 861 861 862 862 863 863 864 864 864 863 863 863 862 862 861 860 859 859 859 859 859 859 859 859 859 860 860 861 862 863 863 864 864 865 865 865 866 866 866 866 866 865 865 865 865 865 865 865 865 865 865 865 864 864 864 863 864 863 863 863 862
846 848 848 849 850 850 851 852 853 854 855 856 857 857 858 858 858 858 859 859 860 861 861 862 862 863 863 863 864 864 865 865 865 865 864 864 864 863 862 861 861 861 860 860 861 861 861 861 861 862 862 863 863 864 864 865 865 866 866 867 867 867 867 867 867 867 866 866 866 866 866 866 866 867 867 866 866 866 865 865 865 865 865 865 864
847 848 849 850 851 851 853 853 854 855 856 857 857 858 858 858 859 859 860 860 861 861 862 863 863 864 864 865 865 866 866 866 866 866 866 865 865 864 863 863 862 862 862 862 862 862 862 862 863 863 864 864 865 865 866 866 866 867 867 868 868 868 868 868 868 868 868 867 867 867 867 867 867 868 868 868 867 867 867 867 867 867 867 867 866
847 849 849 851 852 853 854 855 856 856 856 857 857 858 858 859 859 860 860 861 862 862 863 864 864 864 865 866 866 867 867 867 867 867 867 866 866 866 865 864 863 863 863 863 863 864 864 864 864 864 865 866 866 866 867 867 868 868 868 869 869 870 870 870 869 869 869 869 868 868 869 869 868 869 869 869 869 869 869 868 868 869 868 868 868
847 849 850 851 852 853 855 855 856 857 857 857 858 858 859 860 860 861 861 862 863 863 864 864 865 865 866 867 867 868 868 868 868 868 868 868 867 867 866 865 865 865 865 865 865 865 865 866 866 866 866 867 867 867 868 868 869 869 869 870 870 870 871 871 870 870 870 870 870 870 870 870 870 870 871 870 870 870 870 870 870 870 870 870 870
847 849 850 851 852 854 855 856 856 857 858 858 858 858 859 860 861 862 862 863 863 864 865 865 866 867 867 868 868 869 869 869 869 869 869 869 869 868 868 867 866 866 866 866 866 866 867 867 867 867 868 868 868 868 869 869 869 870 870 871 871 872 872 872 872 871 871 871 871 871 871 871 871 872 872 872 872 872 872 871 872 872 871 871 871
848 849 850 851 852 854 855 856 856 857 857 858 859 859 859 860 861 862 863 864 864 865 865 866 867 868 868 869 869 870 870 870 870 871 870 871 870 870 869 868 868 867 867 867 868 868 868 868 868 868 868 869 869 869 870 870 871 871 871 872 872 873 873 873 873 873 873 872 873 873 873 873 873 874 874 873 873 873 873 873 873 873 873 872 872
848 849 850 852 853 854 855 855 856 857 857 858 858 859 860 860 861 862 863 864 864 865 866 867 868 868 869 869 870 870 871 871 871 871 872 872 871 871 870 870 869 869 869 869 869 869 869 869 869 869 869 870 870 870 871 871 872 872 873 873 874 874 875 875 874 874 874 874 874 874 875 875 875 876 875 875 875 875 875 874 874 874 874 874 873
848 849 850 851 853 853 855 855 856 856 857 858 858 859 860 861 862 863 864 864 865 866 866 867 868 869 869 870 870 871 871 871 872 872 873 873 873 872 872 871 871 871 871 871 871 871 871 871 871 871 871 871 872 872 872 873 873 874 874 875 875 876 876 876 876 876 875 875 876 876 876 877 877 877 877 877 877 877 877 876 876 876 875 875 875
848 849 850 852 853 853 854 855 856 857 857 858 859 860 860 861 862 863 864 865 866 866 867 868 869 869 870 870 871 871 872 872 872 873 873 874 874 874 873 873 872 872 872 872 872 872 872 872 873 873 873 873 873 874 874 874 875 875 875 876 876 877 877 877 877 877 877 877 877 878 878 879 879 879 879 879 878 878 878 878 878 877 877 877 877
848 849 850 852 853 853 854 855 856 857 857 858 859 860 861 862 862 863 864 865 866 867 867 868 869 870 870 871 871 872 872 873 873 874 874 875 875 875 875 874 874 874 874 874 874 874 874 874 874 875 875 875 875 875 876 876 876 876 877 877 877 878 878 878 878 878 878 879 879 879 880 881 881 881 881 880 880 879 879 879 879 879 879 878 878
848 849 850 851 853 853 854 855 856 857 857 858 859 860 861 862 863 863 864 865 866 867 867 868 869 870 870 871 872 872 873 874 874 875 875 876 876 876 876 876 876 876 876 876 876 876 876 876 876 876 877 877 877 877 877 877 877 878 878 878 879 879 879 879 879 880 880 880 880 881 881 882 882 882 882 882 881 880 880 880 880 880 880 879 879
848 849 850 851 852 853 854 855 855 856 857 858 859 860 861 862 863 863 864 865 866 867 868 868 869 870 871 871 872 873 873 874 875 876 876 877 877 877 877 877 877 877 877 878 878 878 878 878 878 878 879 879 879 879 879 879 879 879 879 880 880 880 880 880 881 881 881 881 882 882 883 883 883 883 883 883 882 882 882 881 881 881 881 880 880
848 848 850 851 852 852 853 854 855 856 857 858 859 860 861 861 862 863 864 865 866 867 868 868 869 870 871 871 872 873 874 875 875 876 877 878 878 878 878 879 879 879 879 879 879 880 880 880 880 880 880 880 880 880 880 881 881 881 881 882 882 882 882 882 882 883 883 883 883 884 884 885 884 884 884 884 884 883 883 883 883 883 882 881 881
847 848 849 850 851 851 852 853 855 856 856 857 858 859 860 861 862 863 864 865 866 867 868 868 869 870 871 871 872 873 874 875 876 877 878 878 879 879 879 880 880 880 880 881 881 881 881 881 881 882 882 882 882 882 882 882 883 883 883 883 883 883 883 884 884 884 884 884 885 886 886 886 886 886 886 886 885 885 885 885 885 884 884 883 883
846 847 848 849 850 851 852 853 854 855 856 857 858 859 859 861 862 862 863 864 865 866 867 868 869 870 871 871 872 873 874 875 876 877 878 879 879 880 880 881 881 882 882 882 882 883 883 883 883 883 883 884 883 883 884 884 884 885 885 885 884 885 885 885 885 885 885 886 887 888 888 887 888 887 887 887 887 887 886 886 886 886 885 885 885
845 846 847 848 849 850 851 852 853 854 855 856 857 858 859 860 861 862 863 864 865 866 867 868 869 869 870 871 872 873 874 875 876 877 878 879 880 881 881 882 882 883 883 883 884 884 884 884 885 885 885 885 885 885 885 885 886 886 887 886 886 887 887 887 887 887 887 887 888 889 889 889 889 889 889 889 889 888 888 888 887 887 887 886 886
844 845 846 847 848 850 851 852 852 853 855 855 856 858 859 860 861 862 863 864 865 866 866 867 868 869 870 871 872 873 874 875 876 877 879 880 880 881 882 883 884 884 884 884 885 885 885 885 886 886 886 886 886 886 887 887 888 888 888 888 888 889 889 888 888 888 888 888 889 890 890 890 890 890 890 890 890 890 889 889 889 889 888 888 887
844 844 846 847 848 849 850 851 852 853 854 854 855 857 858 859 860 861 862 863 864 865 866 867 868 869 870 871 872 873 874 875 876 877 879 880 881 881 882 883 884 885 885 885 886 886 886 886 887 887 887 888 888 888 889 889 889 889 890 890 890 890 890 890 890 890 890 890 890 891 891 891 891 891 891 891 891 891 891 890 890 890 890 889 889
843 844 845 846 847 848 849 850 851 852 853 854 855 856 858 859 860 861 861 863 863 864 865 866 868 869 870 871 871 872 874 875 876 877 879 880 881 882 883 884 884 885 886 886 886 887 887 888 888 887 888 888 889 889 890 890 890 890 891 891 892 892 892 892 892 892 892 892 892 892 892 892 893 893 893 892 892 892 892 891 891 891 891 890 890
842 843 844 845 846 848 848 849 850 851 852 853 854 856 857 858 859 860 861 862 863 864 865 866 867 868 869 870 871 872 873 875 876 877 878 879 880 881 883 883 884 885 886 886 886 887 888 888 888 888 889 889 890 890 891 891 892 892 892 892 893 893 893 893 893 893 893 893 893 893 893 893 893 894 894 894 894 893 893 893 892 892 892 891 891
841 841 843 844 845 846 847 848 849 850 851 852 853 855 856 857 858 859 860 861 862 863 864 865 866 867 869 870 870 871 872 874 875 876 877 879 880 880 882 883 884 884 885 886 886 887 888 888 889 889 889 890 891 891 892 892 893 893 893 894 894 894 894 895 895 894 895 894 895 895 894 894 894 895 895 895 895 895 895 895 894 894 893 893 892
839 840 841 843 844 845 846 847 848 850 851 852 853 854 855 856 856 857 859 860 861 862 863 864 865 866 868 869 870 870 871 873 874 875 876 878 879 880 881 882 883 884 885 886 886 887 887 888 889 889 890 890 891 892 893 893 894 894 894 895 895 896 896 896 896 896 896 896 896 896 896 895 895 895 896 897 897 897 896 896 896 896 895 895 894
838 839 840 841 843 843 845 846 847 849 850 851 852 853 854 855 855 856 857 859 860 861 863 864 865 866 867 868 869 870 871 872 873 874 875 877 878 879 880 882 883 884 885 886 886 887 887 889 889 889 890 891 892 893 893 894 895 896 896 896 897 898 898 898 898 898 898 898 898 898 897 897 897 897 897 897 898 898 898 897 897 897 897 897 896
837 838 839 840 841 842 843 844 846 848 849 850 851 852 853 853 854 855 856 858 859 860 861 862 864 866 866 867 868 869 870 871 872 873 875 876 877 878 879 881 882 883 884 885 886 887 887 888 889 889 890 891 892 894 894 895 896 897 897 898 898 899 899 899 899 899 899 899 899 899 899 899 898 898 898 898 898 898 898 899 899 899 899 898 898
835 836 838 839 840 840 841 843 844 846 847 848 849 850 851 852 853 854 854 856 858 859 860 860 862 865 865 867 868 868 869 870 871 872 874 875 877 878 879 880 881 883 884 885 886 886 887 888 889 889 890 891 892 894 895 896 897 899 899 899 900 900 901 901 901 901 901 901 901 900 900 900 900 900 899 899 899 899 899 899 900 900 900 900 900
833 835 836 837 837 838 839 840 842 843 845 846 848 848 850 851 852 852 853 855 856 857 859 859 861 863 864 866 866 867 868 869 870 872 873 875 876 877 878 879 880 882 883 884 885 886 887 888 889 890 890 891 892 894 895 896 898 899 900 901 901 901 902 902 902 902 902 902 902 902 901 901 901 901 901 901 900 900 900 900 900 901 901 901 901
833 834 834 836 836 836 837 838 840 841 843 844 846 847 848 850 850 851 852 854 855 856 857 858 860 861 863 864 865 866 867 868 870 871 872 873 874 876 877 878 879 880 881 882 884 885 887 888 889 890 891 891 892 894 896 897 899 900 901 902 902 903 903 903 903 904 903 903 903 903 903 902 902 902 902 901 901 901 901 901 901 901 901 901 901
831 832 833 834 834 835 836 837 838 839 841 842 844 845 847 849 849 850 851 853 854 854 855 857 859 860 861 863 864 865 866 867 869 870 871 872 873 874 876 877 878 879 880 881 883 885 887 888 889 890 891 892 893 895 896 897 899 901 902 903 903 904 904 904 904 905 904 904 904 904 903 903 903 903 902 902 902 902 902 902 902 902 902 902 902
830 831 832 833 833 834 835 836 837 838 840 841 843 844 845 847 848 850 851 852 853 853 854 856 857 858 860 862 863 864 865 866 867 868 870 871 872 873 875 876 877 878 879 881 882 884 886 888 889 890 891 892 893 896 897 898 900 901 903 904 904 905 905 905 905 905 905 905 904 904 904 904 904 904 903 903 903 903 903 903 903 902 902 902 902
828 829 830 831 832 834 835 835 836 837 839 840 842 843 843 845 848 849 850 852 853 853 854 855 856 857 859 861 862 863 864 865 866 867 868 870 871 872 873 875 876 878 879 881 882 884 885 887 889 890 890 891 893 896 897 899 900 902 904 904 905 906 906 906 906 906 906 905 905 905 905 905 905 905 905 905 904 904 904 904 904 903 903 902 902
827 828 829 831 832 833 834 835 836 836 838 839 841 842 843 845 847 848 849 851 853 853 854 855 855 856 858 860 861 862 863 865 866 867 868 869 870 871 872 874 875 878 879 881 883 884 885 886 887 890 891 891 893 895 897 899 901 903 905 905 906 906 907 907 907 907 907 906 906 906 906 906 906 906 906 906 906 905 905 905 905 904 903 903 903
825 827 828 830 831 833 833 834 835 835 836 838 839 841 842 844 846 846 847 850 852 852 853 854 854 856 858 859 860 862 863 864 865 866 866 867 869 870 872 873 875 877 878 880 882 883 885 886 887 889 891 892 893 895 897 899 901 904 905 906 907 907 908 908 908 908 907 907 907 907 907 907 906 906 907 907 907 906 906 905 905 904 904 904 903
824 825 827 828 830 831 832 833 834 834 835 836 838 839 841 843 845 845 845 848 850 851 852 852 854 855 857 859 860 862 863 863 864 865 866 866 868 870 872 873 875 876 877 879 881 882 884 885 886 888 890 893 895 896 897 898 901 904 906 907 908 909 909 909 909 909 909 909 909 908 908 907 907 907 907 907 907 907 906 906 905 905 904 904 904
822 823 825 826 828 830 830 831 832 833 834 835 836 837 838 840 843 844 844 846 848 849 850 851 853 855 857 859 861 862 863 864 864 865 866 867 868 870 871 873 874 876 877 878 880 881 883 884 886 888 889 891 895 897 898 898 900 904 907 908 909 910 910 910 910 910 910 910 910 909 909 908 908 907 908 908 907 907 907 906 906 905 905 904 904
819 821 823 824 826 828 828 829 830 832 833 834 835 836 837 838 841 842 843 846 847 848 850 851 853 855 856 859 860 862 863 864 865 865 867 867 868 869 871 872 873 875 876 877 879 880 882 883 884 887 890 891 893 896 898 898 899 902 905 908 910 911 911 911 911 911 911 911 910 910 909 908 908 908 908 908 908 907 907 907 907 906 905 905 904
817 819 820 822 824 825 826 827 828 830 831 832 834 835 836 837 840 841 842 845 847 848 849 850 852 854 855 858 860 861 862 863 864 866 866 867 868 869 870 872 873 873 874 876 878 879 881 883 883 885 888 891 893 896 897 898 898 901 903 906 909 910 911 912 911 911 911 911 911 910 910 909 908 908 908 908 908 908 908 907 907 906 906 905 905
814 815 817 819 821 822 824 825 827 828 830 831 832 834 835 836 839 841 842 844 846 847 848 850 852 853 854 857 859 860 861 862 864 865 866 867 867 868 870 871 872 873 873 874 876 879 880 882 884 884 886 889 893 895 897 897 898 899 902 905 908 909 909 910 911 911 911 911 911 910 910 909 908 908 908 908 908 908 908 908 907 907 906 905 905
810 811 813 815 817 820 822 824 826 827 828 830 831 833 833 835 838 839 841 844 845 845 846 849 851 852 853 856 858 859 861 862 864 865 865 867 867 868 869 870 871 872 873 874 875 878 880 882 884 885 885 887 890 893 896 897 898 898 900 902 905 906 906 907 909 910 911 911 911 910 910 909 909 908 908 908 908 908 908 908 907 907 906 905 905
805 807 810 813 815 818 820 822 824 825 827 828 830 832 832 834 836 837 839 842 843 843 845 848 849 850 853 855 857 859 860 861 863 864 865 866 867 868 869 870 871 872 873 874 876 878 880 882 884 885 886 887 888 891 894 896 898 898 898 899 899 900 901 905 907 909 911 911 911 910 910 909 909 909 909 909 909 909 908 908 908 907 906 905 904
802 806 809 812 814 816 818 820 822 823 825 826 828 830 831 833 834 836 838 839 840 842 845 847 848 849 852 854 857 858 860 861 862 864 865 866 867 868 869 870 870 872 873 874 876 878 880 882 884 885 887 888 889 890 892 894 896 897 898 898 898 898 898 901 903 906 908 910 910 910 909 909 909 909 909 909 909 909 909 908 907 906 906 905 904
802 805 807 810 812 814 817 819 820 821 823 825 826 828 829 831 833 834 837 837 838 840 843 846 847 849 851 853 856 857 859 860 861 863 864 866 867 868 869 870 870 871 873 874 875 877 879 881 883 885 886 888 889 889 890 892 894 895 897 897 897 898 898 899 900 901 903 907 909 909 909 909 909 909 909 909 909 908 908 907 907 906 905 904 904
800 803 805 808 810 813 815 817 819 820 822 824 825 827 829 830 832 833 835 836 838 840 841 843 846 848 850 852 854 856 857 859 861 862 864 865 867 868 869 869 870 871 873 874 875 877 879 880 882 884 886 887 888 889 889 891 893 894 895 896 896 897 898 898 899 900 901 904 907 908 909 909 909 909 909 908 908 908 908 907 907 906 905 904 904
799 801 804 807 809 811 813 814 816 818 820 822 824 826 828 829 830 831 833 835 836 839 840 842 845 847 849 850 853 854 856 858 860 861 863 865 866 867 868 869 870 871 873 874 875 876 878 880 881 883 885 886 887 888 889 890 892 892 893 894 895 896 897 898 899 899 900 902 904 906 907 908 908 909 908 908 907 907 907 907 907 906 905 904 903
798 800 802 805 807 808 810 811 814 816 817 820 821 823 826 827 829 830 831 833 834 837 838 840 843 845 847 849 851 853 855 857 859 860 862 864 866 867 868 869 870 871 872 873 874 875 877 879 881 883 885 885 886 887 888 889 890 891 892 893 894 895 895 896 897 898 899 901 903 904 906 906 907 908 908 907 907 907 907 906 906 905 904 903 902